Year,Month,Day,Hour,Minute,Value (Times are PST for temperature in C)
2017,02,22,00,00,2.60
2017,02,22,00,01,2.60
2017,02,22,00,02,2.60
2017,02,22,00,03,2.60
2017,02,22,00,04,2.60
2017,02,22,00,05,2.60
2017,02,22,00,06,2.50
2017,02,22,00,07,2.50
2017,02,22,00,08,2.50
2017,02,22,00,09,2.50
2017,02,22,00,10,2.40
2017,02,22,00,11,2.40
2017,02,22,00,12,2.40
2017,02,22,00,13,2.40
2017,02,22,00,14,2.40
2017,02,22,00,15,2.30
2017,02,22,00,16,2.30
2017,02,22,00,17,2.30
2017,02,22,00,18,2.30
2017,02,22,00,19,2.30
2017,02,22,00,20,2.30
2017,02,22,00,21,2.30
2017,02,22,00,22,2.30
2017,02,22,00,23,2.30
2017,02,22,00,24,2.30
2017,02,22,00,25,2.30
2017,02,22,00,26,2.30
2017,02,22,00,27,2.30
2017,02,22,00,28,2.30
2017,02,22,00,29,2.30
2017,02,22,00,30,2.30
2017,02,22,00,31,2.20
2017,02,22,00,32,2.20
2017,02,22,00,33,2.20
2017,02,22,00,34,2.20
2017,02,22,00,35,2.20
2017,02,22,00,36,2.20
2017,02,22,00,37,2.20
2017,02,22,00,38,2.20
2017,02,22,00,39,2.20
2017,02,22,00,40,2.20
2017,02,22,00,41,2.10
2017,02,22,00,42,2.10
2017,02,22,00,43,2.10
2017,02,22,00,44,2.10
2017,02,22,00,45,2.10
2017,02,22,00,46,2.10
2017,02,22,00,47,2.10
2017,02,22,00,48,2.10
2017,02,22,00,49,2.10
2017,02,22,00,50,2.10
2017,02,22,00,51,2.10
2017,02,22,00,52,2.10
2017,02,22,00,53,2.10
2017,02,22,00,54,2.10
2017,02,22,00,55,2.10
2017,02,22,00,56,2.10
2017,02,22,00,57,2.10
2017,02,22,00,58,2.10
2017,02,22,00,59,2.10
2017,02,22,01,00,2.10
2017,02,22,01,01,2.10
2017,02,22,01,02,2.10
2017,02,22,01,03,2.10
2017,02,22,01,04,2.10
2017,02,22,01,05,2.10
2017,02,22,01,06,2.10
2017,02,22,01,07,2.10
2017,02,22,01,08,2.10
2017,02,22,01,09,2.10
2017,02,22,01,10,2.10
2017,02,22,01,11,2.20
2017,02,22,01,12,2.20
2017,02,22,01,13,2.20
2017,02,22,01,14,2.20
2017,02,22,01,15,2.20
2017,02,22,01,16,2.20
2017,02,22,01,17,2.20
2017,02,22,01,18,2.20
2017,02,22,01,19,2.20
2017,02,22,01,20,2.20
2017,02,22,01,21,2.20
2017,02,22,01,22,2.20
2017,02,22,01,23,2.20
2017,02,22,01,24,2.20
2017,02,22,01,25,2.20
2017,02,22,01,26,2.20
2017,02,22,01,27,2.20
2017,02,22,01,28,2.20
2017,02,22,01,29,2.20
2017,02,22,01,30,2.20
2017,02,22,01,31,2.20
2017,02,22,01,32,2.20
2017,02,22,01,33,2.20
2017,02,22,01,34,2.20
2017,02,22,01,35,2.20
2017,02,22,01,36,2.20
2017,02,22,01,37,2.20
2017,02,22,01,38,2.20
2017,02,22,01,39,2.20
2017,02,22,01,40,2.20
2017,02,22,01,41,2.20
2017,02,22,01,42,2.20
2017,02,22,01,43,2.20
2017,02,22,01,44,2.20
2017,02,22,01,45,2.10
2017,02,22,01,46,2.10
2017,02,22,01,47,2.10
2017,02,22,01,48,2.10
2017,02,22,01,49,2.10
2017,02,22,01,50,2.10
2017,02,22,01,51,2.10
2017,02,22,01,52,2.10
2017,02,22,01,53,2.10
2017,02,22,01,54,2.10
2017,02,22,01,55,2.10
2017,02,22,01,56,2.10
2017,02,22,01,57,2.20
2017,02,22,01,58,2.10
2017,02,22,01,59,2.10
2017,02,22,02,00,2.20
2017,02,22,02,01,2.20
2017,02,22,02,02,2.20
2017,02,22,02,03,2.20
2017,02,22,02,04,2.20
2017,02,22,02,05,2.20
2017,02,22,02,06,2.20
2017,02,22,02,07,2.20
2017,02,22,02,08,2.20
2017,02,22,02,09,2.20
2017,02,22,02,10,2.20
2017,02,22,02,11,2.20
2017,02,22,02,12,2.20
2017,02,22,02,13,2.20
2017,02,22,02,14,2.20
2017,02,22,02,15,2.20
2017,02,22,02,16,2.20
2017,02,22,02,17,2.20
2017,02,22,02,18,2.20
2017,02,22,02,19,2.10
2017,02,22,02,20,2.10
2017,02,22,02,21,2.10
2017,02,22,02,22,2.10
2017,02,22,02,23,2.10
2017,02,22,02,24,2.10
2017,02,22,02,25,2.10
2017,02,22,02,26,2.10
2017,02,22,02,27,2.10
2017,02,22,02,28,2.10
2017,02,22,02,29,2.10
2017,02,22,02,30,2.10
2017,02,22,02,31,2.10
2017,02,22,02,32,2.10
2017,02,22,02,33,2.10
2017,02,22,02,34,2.10
2017,02,22,02,35,2.10
2017,02,22,02,36,2.10
2017,02,22,02,37,2.00
2017,02,22,02,38,2.00
2017,02,22,02,39,2.00
2017,02,22,02,40,2.00
2017,02,22,02,41,1.90
2017,02,22,02,42,1.90
2017,02,22,02,43,1.90
2017,02,22,02,44,1.90
2017,02,22,02,45,1.90
2017,02,22,02,46,1.80
2017,02,22,02,47,1.80
2017,02,22,02,48,1.80
2017,02,22,02,49,1.80
2017,02,22,02,50,1.70
2017,02,22,02,51,1.70
2017,02,22,02,52,1.70
2017,02,22,02,53,1.70
2017,02,22,02,54,1.70
2017,02,22,02,55,1.60
2017,02,22,02,56,1.60
2017,02,22,02,57,1.60
2017,02,22,02,58,1.60
2017,02,22,02,59,1.50
2017,02,22,03,00,1.50
2017,02,22,03,01,1.50
2017,02,22,03,02,1.40
2017,02,22,03,03,1.40
2017,02,22,03,04,1.40
2017,02,22,03,05,1.40
2017,02,22,03,06,1.30
2017,02,22,03,07,1.30
2017,02,22,03,08,1.30
2017,02,22,03,09,1.20
2017,02,22,03,10,1.20
2017,02,22,03,11,1.10
2017,02,22,03,12,1.10
2017,02,22,03,13,1.10
2017,02,22,03,14,1.00
2017,02,22,03,15,1.00
2017,02,22,03,16,0.90
2017,02,22,03,17,0.90
2017,02,22,03,18,0.90
2017,02,22,03,19,0.80
2017,02,22,03,20,0.80
2017,02,22,03,21,0.80
2017,02,22,03,22,0.80
2017,02,22,03,23,0.70
2017,02,22,03,24,0.70
2017,02,22,03,25,0.70
2017,02,22,03,26,0.70
2017,02,22,03,27,0.60
2017,02,22,03,28,0.60
2017,02,22,03,29,0.60
2017,02,22,03,30,0.60
2017,02,22,03,31,0.60
2017,02,22,03,32,0.50
2017,02,22,03,33,0.50
2017,02,22,03,34,0.50
2017,02,22,03,35,0.50
2017,02,22,03,36,0.50
2017,02,22,03,37,0.50
2017,02,22,03,38,0.50
2017,02,22,03,39,0.50
2017,02,22,03,40,0.60
2017,02,22,03,41,0.60
2017,02,22,03,42,0.60
2017,02,22,03,43,0.60
2017,02,22,03,44,0.60
2017,02,22,03,45,0.60
2017,02,22,03,46,0.60
2017,02,22,03,47,0.50
2017,02,22,03,48,0.50
2017,02,22,03,49,0.50
2017,02,22,03,50,0.50
2017,02,22,03,51,0.40
2017,02,22,03,52,0.40
2017,02,22,03,53,0.40
2017,02,22,03,54,0.30
2017,02,22,03,55,0.30
2017,02,22,03,56,0.30
2017,02,22,03,57,0.20
2017,02,22,03,58,0.20
2017,02,22,03,59,0.20
2017,02,22,04,00,0.10
2017,02,22,04,01,0.10
2017,02,22,04,02,0.10
2017,02,22,04,03,0.10
2017,02,22,04,04,0.10
2017,02,22,04,05,0.00
2017,02,22,04,06,0.00
2017,02,22,04,07,0.00
2017,02,22,04,08,0.00
2017,02,22,04,09,-0.10
2017,02,22,04,10,-0.10
2017,02,22,04,11,-0.10
2017,02,22,04,12,-0.10
2017,02,22,04,13,-0.20
2017,02,22,04,14,-0.20
2017,02,22,04,15,-0.20
2017,02,22,04,16,-0.20
2017,02,22,04,17,-0.20
2017,02,22,04,18,-0.20
2017,02,22,04,19,-0.20
2017,02,22,04,20,-0.20
2017,02,22,04,21,-0.20
2017,02,22,04,22,-0.20
2017,02,22,04,23,-0.20
2017,02,22,04,24,-0.20
2017,02,22,04,25,-0.20
2017,02,22,04,26,-0.20
2017,02,22,04,27,-0.20
2017,02,22,04,28,-0.20
2017,02,22,04,29,-0.20
2017,02,22,04,30,-0.20
2017,02,22,04,31,-0.10
2017,02,22,04,32,-0.10
2017,02,22,04,33,-0.10
2017,02,22,04,34,-0.10
2017,02,22,04,35,-0.10
2017,02,22,04,36,-0.10
2017,02,22,04,37,-0.10
2017,02,22,04,38,-0.10
2017,02,22,04,39,-0.10
2017,02,22,04,40,-0.10
2017,02,22,04,41,-0.10
2017,02,22,04,42,-0.10
2017,02,22,04,43,-0.10
2017,02,22,04,44,-0.10
2017,02,22,04,45,-0.10
2017,02,22,04,46,-0.10
2017,02,22,04,47,-0.10
2017,02,22,04,48,-0.20
2017,02,22,04,49,-0.20
2017,02,22,04,50,-0.20
2017,02,22,04,51,-0.30
2017,02,22,04,52,-0.30
2017,02,22,04,53,-0.30
2017,02,22,04,54,-0.40
2017,02,22,04,55,-0.40
2017,02,22,04,56,-0.40
2017,02,22,04,57,-0.40
2017,02,22,04,58,-0.40
2017,02,22,04,59,-0.50
2017,02,22,05,00,-0.50
2017,02,22,05,01,-0.50
2017,02,22,05,02,-0.50
2017,02,22,05,03,-0.60
2017,02,22,05,04,-0.60
2017,02,22,05,05,-0.60
2017,02,22,05,06,-0.60
2017,02,22,05,07,-0.60
2017,02,22,05,08,-0.60
2017,02,22,05,09,-0.60
2017,02,22,05,10,-0.70
2017,02,22,05,11,-0.70
2017,02,22,05,12,-0.70
2017,02,22,05,13,-0.70
2017,02,22,05,14,-0.70
2017,02,22,05,15,-0.70
2017,02,22,05,16,-0.70
2017,02,22,05,17,-0.70
2017,02,22,05,18,-0.70
2017,02,22,05,19,-0.70
2017,02,22,05,20,-0.70
2017,02,22,05,21,-0.70
2017,02,22,05,22,-0.70
2017,02,22,05,23,-0.70
2017,02,22,05,24,-0.70
2017,02,22,05,25,-0.70
2017,02,22,05,26,-0.70
2017,02,22,05,27,-0.70
2017,02,22,05,28,-0.70
2017,02,22,05,29,-0.70
2017,02,22,05,30,-0.80
2017,02,22,05,31,-0.70
2017,02,22,05,32,-0.70
2017,02,22,05,33,-0.70
2017,02,22,05,34,-0.70
2017,02,22,05,35,-0.70
2017,02,22,05,36,-0.70
2017,02,22,05,37,-0.70
2017,02,22,05,38,-0.70
2017,02,22,05,39,-0.70
2017,02,22,05,40,-0.80
2017,02,22,05,41,-0.80
2017,02,22,05,42,-0.80
2017,02,22,05,43,-0.80
2017,02,22,05,44,-0.80
2017,02,22,05,45,-0.80
2017,02,22,05,46,-0.80
2017,02,22,05,47,-0.80
2017,02,22,05,48,-0.80
2017,02,22,05,49,-0.80
2017,02,22,05,50,-0.80
2017,02,22,05,51,-0.80
2017,02,22,05,52,-0.80
2017,02,22,05,53,-0.80
2017,02,22,05,54,-0.80
2017,02,22,05,55,-0.80
2017,02,22,05,56,-0.80
2017,02,22,05,57,-0.80
2017,02,22,05,58,-0.80
2017,02,22,05,59,-0.80
2017,02,22,06,00,-0.80
2017,02,22,06,01,-0.80
2017,02,22,06,02,-0.80
2017,02,22,06,03,-0.80
2017,02,22,06,04,-0.80
2017,02,22,06,05,-0.80
2017,02,22,06,06,-0.80
2017,02,22,06,07,-0.80
2017,02,22,06,08,-0.80
2017,02,22,06,09,-0.80
2017,02,22,06,10,-0.80
2017,02,22,06,11,-0.90
2017,02,22,06,12,-0.90
2017,02,22,06,13,-0.90
2017,02,22,06,14,-1.00
2017,02,22,06,15,-1.00
2017,02,22,06,16,-1.10
2017,02,22,06,17,-1.10
2017,02,22,06,18,-1.20
2017,02,22,06,19,-1.20
2017,02,22,06,20,-1.20
2017,02,22,06,21,-1.20
2017,02,22,06,22,-1.20
2017,02,22,06,23,-1.20
2017,02,22,06,24,-1.20
2017,02,22,06,25,-1.20
2017,02,22,06,26,-1.20
2017,02,22,06,27,-1.20
2017,02,22,06,28,-1.20
2017,02,22,06,29,-1.30
2017,02,22,06,30,-1.30
2017,02,22,06,31,-1.30
2017,02,22,06,32,-1.30
2017,02,22,06,33,-1.30
2017,02,22,06,34,-1.30
2017,02,22,06,35,-1.30
2017,02,22,06,36,-1.30
2017,02,22,06,37,-1.30
2017,02,22,06,38,-1.30
2017,02,22,06,39,-1.30
2017,02,22,06,40,-1.30
2017,02,22,06,41,-1.30
2017,02,22,06,42,-1.30
2017,02,22,06,43,-1.30
2017,02,22,06,44,-1.30
2017,02,22,06,45,-1.30
2017,02,22,06,46,-1.30
2017,02,22,06,47,-1.30
2017,02,22,06,48,-1.30
2017,02,22,06,49,-1.30
2017,02,22,06,50,-1.30
2017,02,22,06,51,-1.30
2017,02,22,06,52,-1.30
2017,02,22,06,53,-1.30
2017,02,22,06,54,-1.30
2017,02,22,06,55,-1.20
2017,02,22,06,56,-1.20
2017,02,22,06,57,-1.20
2017,02,22,06,58,-1.20
2017,02,22,06,59,-1.30
2017,02,22,07,00,-1.30
2017,02,22,07,01,-1.30
2017,02,22,07,02,-1.30
2017,02,22,07,03,-1.30
2017,02,22,07,04,-1.40
2017,02,22,07,05,-1.40
2017,02,22,07,06,-1.40
2017,02,22,07,07,-1.30
2017,02,22,07,08,-1.30
2017,02,22,07,09,-1.30
2017,02,22,07,10,-1.30
2017,02,22,07,11,-1.30
2017,02,22,07,12,-1.30
2017,02,22,07,13,-1.20
2017,02,22,07,14,-1.20
2017,02,22,07,15,-1.20
2017,02,22,07,16,-1.20
2017,02,22,07,17,-1.30
2017,02,22,07,18,-1.30
2017,02,22,07,19,-1.30
2017,02,22,07,20,-1.30
2017,02,22,07,21,-1.30
2017,02,22,07,22,-1.30
2017,02,22,07,23,-1.20
2017,02,22,07,24,-1.20
2017,02,22,07,25,-1.20
2017,02,22,07,26,-1.20
2017,02,22,07,27,-1.20
2017,02,22,07,28,-1.20
2017,02,22,07,29,-1.20
2017,02,22,07,30,-1.10
2017,02,22,07,31,-1.10
2017,02,22,07,32,-1.10
2017,02,22,07,33,-1.10
2017,02,22,07,34,-1.10
2017,02,22,07,35,-1.10
2017,02,22,07,36,-1.10
2017,02,22,07,37,-1.10
2017,02,22,07,38,-1.20
2017,02,22,07,39,-1.20
2017,02,22,07,40,-1.20
2017,02,22,07,41,-1.20
2017,02,22,07,42,-1.20
2017,02,22,07,43,-1.20
2017,02,22,07,44,-1.20
2017,02,22,07,45,-1.20
2017,02,22,07,46,-1.20
2017,02,22,07,47,-1.20
2017,02,22,07,48,-1.20
2017,02,22,07,49,-1.20
2017,02,22,07,50,-1.20
2017,02,22,07,51,-1.20
2017,02,22,07,52,-1.20
2017,02,22,07,53,-1.20
2017,02,22,07,54,-1.10
2017,02,22,07,55,-1.10
2017,02,22,07,56,-1.10
2017,02,22,07,57,-1.10
2017,02,22,07,58,-1.00
2017,02,22,07,59,-1.00
2017,02,22,08,00,-1.00
2017,02,22,08,01,-1.00
2017,02,22,08,02,-0.90
2017,02,22,08,03,-0.90
2017,02,22,08,04,-0.90
2017,02,22,08,05,-0.80
2017,02,22,08,06,-0.80
2017,02,22,08,07,-0.80
2017,02,22,08,08,-0.70
2017,02,22,08,09,-0.70
2017,02,22,08,10,-0.70
2017,02,22,08,11,-0.70
2017,02,22,08,12,-0.70
2017,02,22,08,13,-0.70
2017,02,22,08,14,-0.70
2017,02,22,08,15,-0.70
2017,02,22,08,16,-0.60
2017,02,22,08,17,-0.60
2017,02,22,08,18,-0.50
2017,02,22,08,19,-0.40
2017,02,22,08,20,-0.40
2017,02,22,08,21,-0.30
2017,02,22,08,22,-0.30
2017,02,22,08,23,-0.30
2017,02,22,08,24,-0.20
2017,02,22,08,25,-0.20
2017,02,22,08,26,-0.20
2017,02,22,08,27,-0.20
2017,02,22,08,28,-0.20
2017,02,22,08,29,-0.20
2017,02,22,08,30,-0.20
2017,02,22,08,31,-0.20
2017,02,22,08,32,-0.10
2017,02,22,08,33,-0.10
2017,02,22,08,34,-0.10
2017,02,22,08,35,-0.10
2017,02,22,08,36,0.00
2017,02,22,08,37,0.00
2017,02,22,08,38,0.00
2017,02,22,08,39,0.10
2017,02,22,08,40,0.10
2017,02,22,08,41,0.10
2017,02,22,08,42,0.20
2017,02,22,08,43,0.20
2017,02,22,08,44,0.20
2017,02,22,08,45,0.20
2017,02,22,08,46,0.30
2017,02,22,08,47,0.30
2017,02,22,08,48,0.30
2017,02,22,08,49,0.30
2017,02,22,08,50,0.30
2017,02,22,08,51,0.30
2017,02,22,08,52,0.40
2017,02,22,08,53,0.40
2017,02,22,08,54,0.40
2017,02,22,08,55,0.50
2017,02,22,08,56,0.50
2017,02,22,08,57,0.60
2017,02,22,08,58,0.60
2017,02,22,08,59,0.60
2017,02,22,09,00,0.70
2017,02,22,09,01,0.70
2017,02,22,09,02,0.80
2017,02,22,09,03,0.80
2017,02,22,09,04,0.80
2017,02,22,09,05,0.90
2017,02,22,09,06,0.90
2017,02,22,09,07,0.90
2017,02,22,09,08,1.00
2017,02,22,09,09,1.00
2017,02,22,09,10,1.10
2017,02,22,09,11,1.10
2017,02,22,09,12,1.10
2017,02,22,09,13,1.20
2017,02,22,09,14,1.20
2017,02,22,09,15,1.20
2017,02,22,09,16,1.30
2017,02,22,09,17,1.30
2017,02,22,09,18,1.40
2017,02,22,09,19,1.40
2017,02,22,09,20,1.40
2017,02,22,09,21,1.40
2017,02,22,09,22,1.50
2017,02,22,09,23,1.60
2017,02,22,09,24,1.60
2017,02,22,09,25,1.60
2017,02,22,09,26,1.70
2017,02,22,09,27,1.70
2017,02,22,09,28,1.70
2017,02,22,09,29,1.80
2017,02,22,09,30,1.80
2017,02,22,09,31,1.80
2017,02,22,09,32,1.80
2017,02,22,09,33,1.90
2017,02,22,09,34,1.90
2017,02,22,09,35,1.90
2017,02,22,09,36,1.90
2017,02,22,09,37,2.00
2017,02,22,09,38,2.00
2017,02,22,09,39,2.10
2017,02,22,09,40,2.10
2017,02,22,09,41,2.10
2017,02,22,09,42,2.10
2017,02,22,09,43,2.20
2017,02,22,09,44,2.20
2017,02,22,09,45,2.20
2017,02,22,09,46,2.30
2017,02,22,09,47,2.30
2017,02,22,09,48,2.30
2017,02,22,09,49,2.30
2017,02,22,09,50,2.30
2017,02,22,09,51,2.30
2017,02,22,09,52,2.40
2017,02,22,09,53,2.40
2017,02,22,09,54,2.40
2017,02,22,09,55,2.50
2017,02,22,09,56,2.50
2017,02,22,09,57,2.60
2017,02,22,09,58,2.60
2017,02,22,09,59,2.60
2017,02,22,10,00,2.70
2017,02,22,10,01,2.70
2017,02,22,10,02,2.80
2017,02,22,10,03,2.80
2017,02,22,10,04,2.80
2017,02,22,10,05,2.80
2017,02,22,10,06,2.80
2017,02,22,10,07,2.80
2017,02,22,10,08,2.80
2017,02,22,10,09,2.80
2017,02,22,10,10,2.80
2017,02,22,10,11,2.80
2017,02,22,10,12,2.90
2017,02,22,10,13,2.90
2017,02,22,10,14,2.90
2017,02,22,10,15,3.00
2017,02,22,10,16,3.10
2017,02,22,10,17,3.10
2017,02,22,10,18,3.10
2017,02,22,10,19,3.10
2017,02,22,10,20,3.20
2017,02,22,10,21,3.20
2017,02,22,10,22,3.20
2017,02,22,10,23,3.20
2017,02,22,10,24,3.20
2017,02,22,10,25,3.20
2017,02,22,10,26,3.20
2017,02,22,10,27,3.20
2017,02,22,10,28,3.20
2017,02,22,10,29,3.20
2017,02,22,10,30,3.20
2017,02,22,10,31,3.20
2017,02,22,10,32,3.20
2017,02,22,10,33,3.20
2017,02,22,10,34,3.20
2017,02,22,10,35,3.30
2017,02,22,10,36,3.30
2017,02,22,10,37,3.30
2017,02,22,10,38,3.30
2017,02,22,10,39,3.30
2017,02,22,10,40,3.30
2017,02,22,10,41,3.40
2017,02,22,10,42,3.40
2017,02,22,10,43,3.40
2017,02,22,10,44,3.40
2017,02,22,10,45,3.40
2017,02,22,10,46,3.40
2017,02,22,10,47,3.40
2017,02,22,10,48,3.40
2017,02,22,10,49,3.50
2017,02,22,10,50,3.50
2017,02,22,10,51,3.50
2017,02,22,10,52,3.50
2017,02,22,10,53,3.50
2017,02,22,10,54,3.50
2017,02,22,10,55,3.50
2017,02,22,10,56,3.50
2017,02,22,10,57,3.50
2017,02,22,10,58,3.60
2017,02,22,10,59,3.60
2017,02,22,11,00,3.60
2017,02,22,11,01,3.60
2017,02,22,11,02,3.70
2017,02,22,11,03,3.70
2017,02,22,11,04,3.70
2017,02,22,11,05,3.70
2017,02,22,11,06,3.70
2017,02,22,11,07,3.70
2017,02,22,11,08,3.80
2017,02,22,11,09,3.80
2017,02,22,11,10,3.80
2017,02,22,11,11,3.80
2017,02,22,11,12,3.80
2017,02,22,11,13,3.80
2017,02,22,11,14,3.80
2017,02,22,11,15,3.80
2017,02,22,11,16,3.90
2017,02,22,11,17,3.90
2017,02,22,11,18,3.90
2017,02,22,11,19,4.00
2017,02,22,11,20,4.00
2017,02,22,11,21,4.00
2017,02,22,11,22,4.00
2017,02,22,11,23,4.00
2017,02,22,11,24,4.00
2017,02,22,11,25,4.00
2017,02,22,11,26,4.10
2017,02,22,11,27,4.10
2017,02,22,11,28,4.10
2017,02,22,11,29,4.10
2017,02,22,11,30,4.20
2017,02,22,11,31,4.20
2017,02,22,11,32,4.20
2017,02,22,11,33,4.10
2017,02,22,11,34,4.20
2017,02,22,11,35,4.20
2017,02,22,11,36,4.20
2017,02,22,11,37,4.20
2017,02,22,11,38,4.20
2017,02,22,11,39,4.10
2017,02,22,11,40,4.10
2017,02,22,11,41,4.20
2017,02,22,11,42,4.20
2017,02,22,11,43,4.20
2017,02,22,11,44,4.30
2017,02,22,11,45,4.30
2017,02,22,11,46,4.30
2017,02,22,11,47,4.40
2017,02,22,11,48,4.40
2017,02,22,11,49,4.40
2017,02,22,11,50,4.40
2017,02,22,11,51,4.50
2017,02,22,11,52,4.50
2017,02,22,11,53,4.60
2017,02,22,11,54,4.60
2017,02,22,11,55,4.60
2017,02,22,11,56,4.70
2017,02,22,11,57,4.70
2017,02,22,11,58,4.80
2017,02,22,11,59,4.80
2017,02,22,12,00,4.80
2017,02,22,12,01,4.80
2017,02,22,12,02,4.80
2017,02,22,12,03,4.80
2017,02,22,12,04,4.80
2017,02,22,12,05,4.80
2017,02,22,12,06,4.80
2017,02,22,12,07,4.80
2017,02,22,12,08,4.80
2017,02,22,12,09,4.80
2017,02,22,12,10,4.70
2017,02,22,12,11,4.70
2017,02,22,12,12,4.70
2017,02,22,12,13,4.80
2017,02,22,12,14,4.80
2017,02,22,12,15,4.80
2017,02,22,12,16,4.80
2017,02,22,12,17,4.80
2017,02,22,12,18,4.80
2017,02,22,12,19,4.80
2017,02,22,12,20,4.90
2017,02,22,12,21,4.90
2017,02,22,12,22,5.00
2017,02,22,12,23,5.00
2017,02,22,12,24,5.10
2017,02,22,12,25,5.10
2017,02,22,12,26,5.20
2017,02,22,12,27,5.20
2017,02,22,12,28,5.20
2017,02,22,12,29,5.20
2017,02,22,12,30,5.30
2017,02,22,12,31,5.30
2017,02,22,12,32,5.40
2017,02,22,12,33,5.50
2017,02,22,12,34,5.60
2017,02,22,12,35,5.60
2017,02,22,12,36,5.70
2017,02,22,12,37,5.70
2017,02,22,12,38,5.70
2017,02,22,12,39,5.70
2017,02,22,12,40,5.70
2017,02,22,12,41,5.70
2017,02,22,12,42,5.60
2017,02,22,12,43,5.60
2017,02,22,12,44,5.60
2017,02,22,12,45,5.60
2017,02,22,12,46,5.60
2017,02,22,12,47,5.60
2017,02,22,12,48,5.60
2017,02,22,12,49,5.60
2017,02,22,12,50,5.60
2017,02,22,12,51,5.60
2017,02,22,12,52,5.50
2017,02,22,12,53,5.50
2017,02,22,12,54,5.50
2017,02,22,12,55,5.40
2017,02,22,12,56,5.40
2017,02,22,12,57,5.40
2017,02,22,12,58,5.40
2017,02,22,12,59,5.30
2017,02,22,13,00,5.30
2017,02,22,13,01,5.30
2017,02,22,13,02,5.30
2017,02,22,13,03,5.40
2017,02,22,13,04,5.40
2017,02,22,13,05,5.40
2017,02,22,13,06,5.40
2017,02,22,13,07,5.40
2017,02,22,13,08,5.40
2017,02,22,13,09,5.50
2017,02,22,13,10,5.50
2017,02,22,13,11,5.50
2017,02,22,13,12,5.60
2017,02,22,13,13,5.60
2017,02,22,13,14,5.60
2017,02,22,13,15,5.60
2017,02,22,13,16,5.60
2017,02,22,13,17,5.60
2017,02,22,13,18,5.60
2017,02,22,13,19,5.70
2017,02,22,13,20,5.70
2017,02,22,13,21,5.70
2017,02,22,13,22,5.70
2017,02,22,13,23,5.70
2017,02,22,13,24,5.80
2017,02,22,13,25,5.80
2017,02,22,13,26,5.80
2017,02,22,13,27,5.80
2017,02,22,13,28,5.80
2017,02,22,13,29,5.90
2017,02,22,13,30,5.90
2017,02,22,13,31,5.90
2017,02,22,13,32,5.90
2017,02,22,13,33,5.90
2017,02,22,13,34,5.90
2017,02,22,13,35,5.90
2017,02,22,13,36,5.90
2017,02,22,13,37,5.90
2017,02,22,13,38,5.90
2017,02,22,13,39,5.90
2017,02,22,13,40,5.90
2017,02,22,13,41,5.90
2017,02,22,13,42,5.90
2017,02,22,13,43,5.90
2017,02,22,13,44,5.90
2017,02,22,13,45,5.90
2017,02,22,13,46,6.00
2017,02,22,13,47,6.00
2017,02,22,13,48,6.00
2017,02,22,13,49,6.00
2017,02,22,13,50,6.00
2017,02,22,13,51,6.00
2017,02,22,13,52,6.00
2017,02,22,13,53,6.10
2017,02,22,13,54,6.10
2017,02,22,13,55,6.10
2017,02,22,13,56,6.20
2017,02,22,13,57,6.20
2017,02,22,13,58,6.20
2017,02,22,13,59,6.30
2017,02,22,14,00,6.40
2017,02,22,14,01,6.40
2017,02,22,14,02,6.50
2017,02,22,14,03,6.50
2017,02,22,14,04,6.60
2017,02,22,14,05,6.70
2017,02,22,14,06,6.70
2017,02,22,14,07,6.70
2017,02,22,14,08,6.70
2017,02,22,14,09,6.60
2017,02,22,14,10,6.60
2017,02,22,14,11,6.60
2017,02,22,14,12,6.50
2017,02,22,14,13,6.50
2017,02,22,14,14,6.40
2017,02,22,14,15,6.30
2017,02,22,14,16,6.30
2017,02,22,14,17,6.30
2017,02,22,14,18,6.20
2017,02,22,14,19,6.20
2017,02,22,14,20,6.20
2017,02,22,14,21,6.10
2017,02,22,14,22,6.10
2017,02,22,14,23,6.00
2017,02,22,14,24,6.00
2017,02,22,14,25,6.00
2017,02,22,14,26,6.00
2017,02,22,14,27,6.00
2017,02,22,14,28,6.00
2017,02,22,14,29,6.00
2017,02,22,14,30,6.00
2017,02,22,14,31,6.00
2017,02,22,14,32,6.00
2017,02,22,14,33,6.00
2017,02,22,14,34,6.10
2017,02,22,14,35,6.10
2017,02,22,14,36,6.20
2017,02,22,14,37,6.20
2017,02,22,14,38,6.20
2017,02,22,14,39,6.30
2017,02,22,14,40,6.30
2017,02,22,14,41,6.30
2017,02,22,14,42,6.30
2017,02,22,14,43,6.30
2017,02,22,14,44,6.30
2017,02,22,14,45,6.40
2017,02,22,14,46,6.40
2017,02,22,14,47,6.40
2017,02,22,14,48,6.40
2017,02,22,14,49,6.50
2017,02,22,14,50,6.50
2017,02,22,14,51,6.50
2017,02,22,14,52,6.50
2017,02,22,14,53,6.60
2017,02,22,14,54,6.60
2017,02,22,14,55,6.70
2017,02,22,14,56,6.70
2017,02,22,14,57,6.70
2017,02,22,14,58,6.70
2017,02,22,14,59,6.70
2017,02,22,15,00,6.70
2017,02,22,15,01,6.70
2017,02,22,15,02,6.70
2017,02,22,15,03,6.80
2017,02,22,15,04,6.80
2017,02,22,15,05,6.80
2017,02,22,15,06,6.90
2017,02,22,15,07,6.90
2017,02,22,15,08,6.90
2017,02,22,15,09,7.00
2017,02,22,15,10,7.00
2017,02,22,15,11,7.00
2017,02,22,15,12,7.00
2017,02,22,15,13,7.00
2017,02,22,15,14,6.90
2017,02,22,15,15,7.00
2017,02,22,15,16,6.90
2017,02,22,15,17,6.90
2017,02,22,15,18,7.00
2017,02,22,15,19,7.00
2017,02,22,15,20,7.00
2017,02,22,15,21,7.00
2017,02,22,15,22,7.00
2017,02,22,15,23,7.00
2017,02,22,15,24,7.00
2017,02,22,15,25,7.00
2017,02,22,15,26,7.00
2017,02,22,15,27,7.00
2017,02,22,15,28,7.00
2017,02,22,15,29,7.00
2017,02,22,15,30,7.00
2017,02,22,15,31,7.00
2017,02,22,15,32,7.00
2017,02,22,15,33,6.90
2017,02,22,15,34,6.90
2017,02,22,15,35,6.90
2017,02,22,15,36,6.90
2017,02,22,15,37,6.90
2017,02,22,15,38,6.90
2017,02,22,15,39,6.80
2017,02,22,15,40,6.80
2017,02,22,15,41,6.80
2017,02,22,15,42,6.70
2017,02,22,15,43,6.70
2017,02,22,15,44,6.70
2017,02,22,15,45,6.70
2017,02,22,15,46,6.70
2017,02,22,15,47,6.70
2017,02,22,15,48,6.70
2017,02,22,15,49,6.70
2017,02,22,15,50,6.70
2017,02,22,15,51,6.70
2017,02,22,15,52,6.70
2017,02,22,15,53,6.80
2017,02,22,15,54,6.80
2017,02,22,15,55,6.80
2017,02,22,15,56,6.80
2017,02,22,15,57,6.80
2017,02,22,15,58,6.90
2017,02,22,15,59,6.90
2017,02,22,16,00,6.90
2017,02,22,16,01,6.90
2017,02,22,16,02,7.00
2017,02,22,16,03,7.00
2017,02,22,16,04,7.10
2017,02,22,16,05,7.10
2017,02,22,16,06,7.10
2017,02,22,16,07,7.10
2017,02,22,16,08,7.10
2017,02,22,16,09,7.10
2017,02,22,16,10,7.10
2017,02,22,16,11,7.10
2017,02,22,16,12,7.10
2017,02,22,16,13,7.10
2017,02,22,16,14,7.10
2017,02,22,16,15,7.20
2017,02,22,16,16,7.20
2017,02,22,16,17,7.20
2017,02,22,16,18,7.20
2017,02,22,16,19,7.20
2017,02,22,16,20,7.10
2017,02,22,16,21,7.10
2017,02,22,16,22,7.10
2017,02,22,16,23,7.10
2017,02,22,16,24,7.10
2017,02,22,16,25,7.10
2017,02,22,16,26,7.10
2017,02,22,16,27,7.10
2017,02,22,16,28,7.10
2017,02,22,16,29,7.10
2017,02,22,16,30,7.10
2017,02,22,16,31,7.10
2017,02,22,16,32,7.10
2017,02,22,16,33,7.10
2017,02,22,16,34,7.10
2017,02,22,16,35,7.00
2017,02,22,16,36,7.00
2017,02,22,16,37,7.00
2017,02,22,16,38,7.00
2017,02,22,16,39,6.90
2017,02,22,16,40,6.90
2017,02,22,16,41,6.90
2017,02,22,16,42,6.90
2017,02,22,16,43,6.90
2017,02,22,16,44,6.90
2017,02,22,16,45,6.90
2017,02,22,16,46,6.90
2017,02,22,16,47,6.90
2017,02,22,16,48,6.90
2017,02,22,16,49,6.90
2017,02,22,16,50,6.90
2017,02,22,16,51,6.90
2017,02,22,16,52,6.80
2017,02,22,16,53,6.80
2017,02,22,16,54,6.80
2017,02,22,16,55,6.80
2017,02,22,16,56,6.80
2017,02,22,16,57,6.80
2017,02,22,16,58,6.80
2017,02,22,16,59,6.80
2017,02,22,17,00,6.80
2017,02,22,17,01,6.80
2017,02,22,17,02,6.70
2017,02,22,17,03,6.70
2017,02,22,17,04,6.70
2017,02,22,17,05,6.60
2017,02,22,17,06,6.60
2017,02,22,17,07,6.50
2017,02,22,17,08,6.50
2017,02,22,17,09,6.40
2017,02,22,17,10,6.40
2017,02,22,17,11,6.40
2017,02,22,17,12,6.40
2017,02,22,17,13,6.40
2017,02,22,17,14,6.40
2017,02,22,17,15,6.40
2017,02,22,17,16,6.30
2017,02,22,17,17,6.30
2017,02,22,17,18,6.30
2017,02,22,17,19,6.30
2017,02,22,17,20,6.30
2017,02,22,17,21,6.30
2017,02,22,17,22,6.30
2017,02,22,17,23,6.30
2017,02,22,17,24,6.30
2017,02,22,17,25,6.30
2017,02,22,17,26,6.20
2017,02,22,17,27,6.20
2017,02,22,17,28,6.20
2017,02,22,17,29,6.20
2017,02,22,17,30,6.20
2017,02,22,17,31,6.10
2017,02,22,17,32,6.10
2017,02,22,17,33,6.10
2017,02,22,17,34,6.10
2017,02,22,17,35,6.00
2017,02,22,17,36,6.00
2017,02,22,17,37,6.00
2017,02,22,17,38,6.00
2017,02,22,17,39,6.00
2017,02,22,17,40,5.90
2017,02,22,17,41,5.90
2017,02,22,17,42,5.90
2017,02,22,17,43,5.90
2017,02,22,17,44,5.80
2017,02,22,17,45,5.80
2017,02,22,17,46,5.80
2017,02,22,17,47,5.80
2017,02,22,17,48,5.80
2017,02,22,17,49,5.70
2017,02,22,17,50,5.70
2017,02,22,17,51,5.70
2017,02,22,17,52,5.70
2017,02,22,17,53,5.60
2017,02,22,17,54,5.60